EW5383 Weather Reports


Display with metric or nautical units.
time (UTC)temp
F
wind
direction
speed
MPH
gust
MPH
rain 1hr
in
rain 24hr
in
rain mn
in
humidity
%
barometer
mb
20260509213100 93 359 0.0 1.0 0.00 0.00 0.00 49 1011.8
20260509211601 93 143 0.0 1.0 0.00 0.00 0.00 51 1011.7
20260509210051 92 213 0.0 2.0 0.00 0.00 0.00 50 1011.7
20260509204542 93 83 0.0 1.0 0.00 0.00 0.00 51 1011.7
20260509203039 93 58 0.0 1.0 0.00 0.00 0.00 49 1011.9
20260509201534 93 135 0.0 1.0 0.00 0.00 0.00 48 1012.0
20260509200028 95 47 0.0 1.0 0.00 0.00 0.00 46 1012.2
20260509194531 95 255 0.0 2.0 0.00 0.00 0.00 47 1012.3
20260509193020 95 355 0.0 1.0 0.00 0.00 0.00 48 1012.5
20260509191515 96 94 0.0 2.0 0.00 0.00 0.00 47 1012.7
20260509190016 96 129 0.0 0.0 0.00 0.00 0.00 48 1012.9
20260509184506 95 53 0.0 1.0 0.00 0.00 0.00 50 1013.0
20260509183007 95 88 0.0 2.0 0.00 0.00 0.00 46 1013.1
20260509181615 96 27 0.0 1.0 0.00 0.00 0.00 46 1013.2
20260509180054 95 305 0.0 1.0 0.00 0.00 0.00 48 1013.2
20260509174550 95 283 0.0 1.0 0.00 0.00 0.00 49 1013.3
20260509173045 95 337 0.0 1.0 0.00 0.00 0.00 50 1013.3
20260509171543 95 160 0.0 3.0 0.00 0.00 0.00 48 1013.3
20260509170037 96 24 0.0 1.0 0.00 0.00 0.00 46 1013.3
20260509164532 96 242 0.0 1.0 0.00 0.00 0.00 46 1013.4
20260509163032 95 148 0.0 2.0 0.00 0.00 0.00 50 1013.6
20260509161523 95 349 0.0 1.0 0.00 0.00 0.00 51 1013.6
20260509160019 94 69 0.0 1.0 0.00 0.00 0.00 51 1013.8
20260509154516 92 84 0.0 0.0 0.00 0.00 0.00 56 1013.8
20260509153010 90 222 0.0 1.0 0.00 0.00 0.00 58 1013.9
20260509151505 89 248 0.0 0.0 0.00 0.00 0.00 58 1014.2
20260509150003 89 174 0.0 0.0 0.00 0.00 0.00 60 1014.2
20260509144557 89 148 0.0 0.0 0.00 0.00 0.00 60 1014.2
20260509143053 87 63 0.0 0.0 0.00 0.00 0.00 61 1014.2
20260509141548 86 136 0.0 0.0 0.00 0.00 0.00 59 1014.1
20260509140048 84 108 0.0 0.0 0.00 0.00 0.00 51 1014.0
20260509134538 82 120 0.0 0.0 0.00 0.00 0.00 38 1013.8
20260509133035 82 123 0.0 0.0 0.00 0.00 0.00 1 1013.6
20260509131530 80 144 0.0 0.0 0.00 0.00 0.00 1 1013.7
20260509130026 80 129 0.0 0.0 0.00 0.00 0.00 1 1013.6
20260509124521 79 114 0.0 0.0 0.00 0.00 0.00 1 1013.6
20260509123017 78 66 0.0 0.0 0.00 0.00 0.00 1 1013.6
20260509121518 77 84 0.0 0.0 0.00 0.00 0.00 1 1013.5
20260509120008 77 31 0.0 0.0 0.00 0.00 0.00 1 1013.3
20260509114504 75 31 0.0 0.0 0.00 0.00 0.00 1 1013.1
20260509113100 74 126 0.0 0.0 0.00 0.00 0.00 1 1012.9
20260509111555 72 126 0.0 0.0 0.00 0.00 0.00 1 1012.8
20260509110050 0 0.0 0.0 0.00 0.00 0.00 1012.9
20260509104546 0 0.0 0.0 0.00 0.00 0.00 1012.6
20260509103042 0 0.0 0.0 0.00 0.00 0.00 1012.6
20260509101549 0 0.0 0.0 0.00 0.00 0.00 1012.7
20260509100033 0 0.0 0.0 0.00 0.00 0.00 1012.8
20260509094529 0 0.0 0.0 0.00 0.00 0.00 1012.7
20260509093036 0 0.0 0.0 0.00 0.00 0.00 1012.7
20260509091520 0 0.0 0.0 0.00 0.00 0.00 1012.7
20260509090016 0 0.0 0.0 0.00 0.00 0.00 1012.7
20260509084522 0 0.0 0.0 0.00 0.00 0.00 1012.8
20260509083007 0 0.0 0.0 0.00 0.00 0.00 1012.9
20260509081502 0 0.0 0.0 0.00 0.00 0.00 1013.0
20260509080100 0 0.0 0.0 0.00 0.00 0.00 1012.9
20260509074554 0 0.0 0.0 0.00 0.00 0.00 1013.0
20260509073049 0 0.0 0.0 0.00 0.00 0.00 1013.2
20260509071545 0 0.0 0.0 0.00 0.00 0.00 1013.3
20260509070044 0 0.0 0.0 0.00 0.00 0.00 1013.5
20260509064536 0 0.0 0.0 0.00 0.00 0.00 1013.6
20260509063032 0 0.0 0.0 0.00 0.00 0.00 1013.7
20260509061528 0 0.0 0.0 0.00 0.00 0.00 1013.9
20260509060024 0 0.0 0.0 0.00 0.00 0.00 1014.1
20260509054519 0 0.0 0.0 0.00 0.00 0.00 1014.1
20260509053021 0 0.0 0.0 0.00 0.00 0.00 1014.2
20260509051510 0 0.0 0.0 0.00 0.00 0.00 1014.3
20260509050006 0 0.0 0.0 0.00 0.00 0.00 1014.3
20260509044502 0 0.0 0.0 0.00 0.00 0.00 1014.5
20260509043101 0 0.0 0.0 0.00 0.00 0.00 1014.5
20260509041556 0 0.0 0.0 0.00 0.00 0.00 1014.5
20260509040051 77 44 0.0 0.0 0.00 0.00 0.00 1 1014.6
20260509034549 78 41 0.0 0.0 0.00 0.00 0.00 1 1014.6
20260509033042 77 1 0.0 0.0 0.00 0.00 0.00 1 1014.7
20260509031535 77 1 0.0 0.0 0.00 0.00 0.00 1 1014.7
20260509030031 77 1 0.0 0.0 0.00 0.00 0.00 1 1014.6
20260509024528 77 1 0.0 0.0 0.00 0.00 0.00 1 1014.5
20260509023024 77 1 0.0 0.0 0.00 0.00 0.00 1 1014.4
20260509021518 77 1 0.0 0.0 0.00 0.00 0.00 1 1014.3
20260509020015 78 1 0.0 0.0 0.00 0.00 0.00 1 1014.1
20260509014530 78 1 0.0 1.0 0.00 0.00 0.00 1 1013.9
20260509013004 78 320 0.0 0.0 0.00 0.00 0.00 7 1013.6
20260509011601 78 357 0.0 0.0 0.00 0.00 0.00 27 1013.5
20260509010056 78 357 0.0 0.0 0.00 0.00 0.00 41 1013.4
20260509004554 79 357 0.0 0.0 0.00 0.00 0.00 48 1013.2
20260509003048 80 354 0.0 0.0 0.00 0.00 0.00 56 1013.1
20260509001543 81 354 0.0 0.0 0.00 0.00 0.00 62 1012.9
20260509000038 82 34 0.0 0.0 0.00 0.00 0.00 64 1012.7
20260508234535 83 18 0.0 1.0 0.00 0.00 0.00 62 1012.6
20260508233037 84 47 0.0 1.0 0.00 0.00 0.00 61 1012.5
20260508231527 85 348 0.0 0.0 0.00 0.00 0.00 59 1012.4
20260508230021 87 13 0.0 1.0 0.00 0.00 0.00 58 1012.2
20260508224516 88 40 0.0 0.0 0.00 0.00 0.00 56 1011.9
20260508223021 89 27 0.0 0.0 0.00 0.00 0.00 54 1011.9
20260508221507 90 5 0.0 0.0 0.00 0.00 0.00 53 1011.8
20260508220003 92 42 0.0 0.0 0.00 0.00 0.00 51 1012.0
20260508214559 92 30 0.0 0.0 0.00 0.00 0.00 51 1012.0